Temperature
8 7 7 7 7 8 8 7 8 8 8 8 7 7 8 9 8 8 9 9 10 11 12 12 11 11 11 11 11 11 11 11 10 11 10 10 10 10 10 10 10 10 10 10
7 7 8 8 7 8 7 7 7 7 8 8 7 7 7 7 7 8 8 9 10 11 11 11 11 11 11 11 11 11 11 11 10 10 10 10 10 10 10 10 10 10 9 9
7 8 8 8 7 7 7 7 7 7 7 7 7 7 7 7 7 8 8 9 10 10 10 11 11 11 11 11 11 11 10 10 10 10 10 10 10 10 9 9 9 9 9 9
7 7 7 7 7 7 7 8 7 7 7 6 7 7 7 7 7 7 7 8 9 10 10 10 10 11 11 11 11 10 10 10 10 10 10 10 9 9 9 9 9 9 9 9
6 7 7 7 7 7 7 7 7 7 6 6 6 6 6 6 6 7 7 8 9 9 10 10 10 10 10 10 10 10 10 10 10 10 9 9 9 9 9 9 9 9 8 8
6 6 7 7 7 7 7 6 6 5 5 6 6 6 6 5 6 7 7 8 8 9 9 10 10 10 10 10 10 10 10 10 9 9 9 9 9 9 9 8 8 8 8 8
5 6 6 6 6 6 6 6 6 6 6 6 6 6 6 6 6 6 6 7 8 9 9 9 9 9 9 9 9 9 9 9 9 9 9 8 8 8 8 8 8 8 8 8
4 5 5 5 6 5 6 6 6 6 6 5 5 5 6 6 6 6 7 7 8 8 8 9 9 9 9 9 9 9 9 9 9 8 8 8 8 8 8 8 8 8 8 8
4 4 5 5 5 5 5 5 6 5 5 5 5 4 5 5 5 5 5 6 7 8 8 8 8 9 9 9 9 9 9 8 8 8 8 8 8 7 8 8 7 7 7 7
3 3 4 4 5 5 5 4 4 5 5 5 5 5 5 6 5 5 5 5 6 7 7 8 8 8 9 9 8 8 8 8 8 8 8 8 8 7 7 7 7 7 7 7
3 3 3 3 3 4 4 4 4 4 4 5 5 6 5 5 5 5 5 5 6 6 7 7 8 8 8 8 8 8 8 8 8 8 7 7 7 7 7 7 7 7 7 6
2 2 2 2 3 3 3 3 3 4 4 3 3 5 6 4 4 4 4 5 6 6 7 7 7 7 7 7 7 7 7 7 7 7 7 7 7 7 7 7 7 6 6 6
2 1 1 2 3 2 3 3 3 3 3 2 3 4 5 4 4 4 4 5 5 6 6 6 6 7 7 7 7 7 7 7 7 7 7 6 6 6 6 6 6 6 6 6
2 1 1 2 3 2 2 2 2 2 2 2 3 4 4 4 4 4 4 5 5 5 5 6 6 6 6 6 6 6 6 6 6 6 6 6 6 6 6 6 6 6 5 5
1 0 0 1 2 2 2 2 2 2 3 3 3 3 4 4 4 4 4 4 4 5 5 5 5 5 5 5 5 5 5 6 6 6 6 5 5 5 5 5 5 5 5 5
-0 -0 -0 0 1 2 2 2 2 2 2 2 3 3 3 3 4 3 3 4 4 4 4 4 4 5 5 5 5 5 5 5 5 5 5 5 5 5 5 5 5 5 5 4
-1 -1 -1 -0 0 1 1 1 1 1 2 2 3 3 2 2 2 3 3 3 3 3 3 4 4 4 4 4 4 5 4 4 4 4 4 4 4 4 4 4 4 4 4 4
-1 -1 -1 -1 -0 -0 1 1 1 1 2 1 2 2 2 2 2 3 3 3 3 3 3 3 4 4 4 4 4 4 4 4 4 4 4 4 4 4 4 4 4 4 4 4
-1 -1 -2 -1 -1 0 1 0 0 0 1 1 1 1 1 1 1 1 2 2 2 3 3 3 3 3 3 3 3 3 3 3 3 3 3 3 3 3 3 3 3 3 3 3
-2 -2 -2 -2 -1 -0 0 -0 -0 0 0 -0 -0 -0 -1 -0 0 1 1 1 2 2 2 2 3 3 2 2 2 3 3 2 2 2 3 3 3 3 3 3 3 2 3 2
-2 -3 -3 -2 -2 -1 -1 -1 -0 -0 -1 -1 -1 -1 -1 -1 0 1 1 1 1 1 2 2 2 2 2 2 2 2 2 2 2 2 2 2 2 2 2 2 2 2 2 2
-3 -3 -3 -3 -2 -2 -2 -2 -2 -2 -2 -2 -2 -1 -1 -1 -1 -1 -0 -0 0 0 1 1 1 1 1 1 1 1 1 1 1 1 1 2 1 1 1 1 1 1 1 1
-4 -3 -3 -3 -2 -3 -3 -3 -2 -2 -2 -2 -2 -2 -2 -2 -2 -2 -2 -1 -1 -1 -1 -0 0 0 0 0 0 0 0 0 0 0 1 1 1 1 0 0 0 0 1 0
-5 -4 -4 -4 -3 -3 -3 -3 -3 -3 -3 -2 -2 -2 -2 -2 -3 -3 -2 -2 -2 -2 -2 -1 -1 -1 -1 -1 -1 -1 -0 -0 -0 -0 -0 -0 -0 -0 -0 -1 -0 -0 -0 -0
-5 -5 -5 -4 -4 -4 -4 -4 -4 -3 -3 -3 -3 -3 -3 -3 -3 -3 -3 -3 -3 -3 -2 -2 -2 -2 -1 -1 -1 -1 -1 -1 -1 -1 -1 -1 -1 -1 -1 -1 -1 -1 -1 -1
-6 -6 -5 -5 -5 -5 -5 -4 -4 -4 -4 -4 -4 -4 -4 -4 -4 -4 -4 -4 -4 -3 -3 -3 -3 -2 -2 -2 -2 -2 -2 -2 -2 -2 -2 -2 -2 -2 -2 -2 -2 -2 -2 -2
Wind_Speed
3 4 10 13 13 5 4 5 6 6 3 4 9 14 14 9 6 8 8 7 8 9 8 5 5 5 5 5 6 7 6 6 6 4 4 4 3 3 2 2 3 4 4 5
3 11 13 6 7 7 6 6 7 5 3 4 7 12 10 9 7 8 9 8 9 7 5 4 4 5 6 7 7 7 7 7 7 6 5 3 3 3 3 2 2 3 4 4
12 5 5 7 7 10 11 11 9 6 4 2 5 9 6 5 5 5 6 7 7 7 7 5 4 5 5 6 7 7 7 7 7 6 4 3 2 2 2 2 2 2 4 4
10 8 5 6 9 10 12 9 7 5 3 4 1 7 7 5 6 6 6 5 6 6 6 5 5 5 6 6 6 6 6 7 7 7 7 6 4 3 3 3 3 2 3 4
7 6 7 9 9 10 6 3 5 5 5 5 4 5 8 2 6 7 6 6 6 6 6 6 6 6 6 5 5 5 5 5 6 7 8 8 5 3 2 2 3 3 2 3
7 4 6 7 4 7 4 3 1 2 3 8 10 8 8 5 7 5 5 5 5 5 5 5 4 3 3 3 4 4 5 5 5 7 8 8 7 6 4 4 4 3 2 2
4 4 3 2 2 3 5 4 1 3 5 8 6 7 9 5 5 5 5 5 4 4 4 4 3 3 3 4 4 4 5 4 4 6 7 7 8 8 7 6 5 4 3 2
3 5 4 4 6 6 9 9 7 6 6 4 4 8 7 3 4 4 3 3 2 3 3 4 4 5 4 4 5 5 5 5 5 6 6 6 6 6 5 6 5 5 5 4
4 6 2 2 2 6 6 8 5 3 2 3 6 5 6 2 2 2 2 2 3 3 3 3 3 4 4 4 5 6 6 5 5 6 5 5 5 5 5 5 5 4 4 3
3 4 4 2 1 2 4 6 4 6 5 6 5 6 6 4 3 3 3 3 4 3 2 2 2 3 3 4 4 4 5 6 5 5 5 4 5 5 5 4 4 5 4 4
2 3 3 1 5 6 4 5 4 4 4 5 5 6 5 6 5 5 5 4 3 3 3 2 2 2 2 2 3 4 4 4 4 5 5 5 4 4 4 4 4 5 4 5
3 3 4 6 5 3 5 6 6 5 5 5 4 7 3 4 3 2 3 3 2 2 2 1 1 0 1 2 2 3 4 4 5 5 5 5 4 4 4 4 4 4 5 5
2 2 2 4 2 1 2 4 4 3 3 5 6 7 3 2 3 2 2 2 2 2 2 2 2 1 1 1 2 3 3 4 4 4 4 4 4 4 4 4 4 4 5 5
2 3 6 8 6 3 5 6 5 5 5 6 9 9 7 5 5 4 3 3 2 1 2 1 1 2 1 2 2 2 3 3 4 4 4 4 5 5 5 4 4 5 5 5
2 4 5 7 7 5 7 9 8 9 10 9 10 11 11 7 7 5 3 3 2 2 2 1 1 2 2 1 2 2 2 2 3 4 4 5 5 5 4 4 4 4 4 5
1 3 3 5 6 6 9 10 10 11 9 10 11 12 8 6 4 4 4 4 3 3 3 2 2 2 2 2 2 2 2 2 3 4 4 4 3 4 4 4 4 4 4 4
3 3 2 5 5 4 7 7 7 6 6 7 11 11 5 4 4 4 4 3 3 3 3 3 3 2 3 2 2 3 2 2 3 3 3 3 3 3 4 4 4 4 4 4
5 4 3 3 1 7 6 2 4 6 6 5 5 5 4 5 5 4 2 2 3 3 2 3 3 3 2 2 1 1 1 2 3 2 2 3 3 3 3 4 4 4 4 4
7 6 3 3 5 7 5 3 2 4 5 2 4 5 5 4 3 3 1 1 2 3 3 3 3 2 1 1 0 1 2 2 2 1 2 2 3 3 3 4 4 3 3 3
2 4 4 3 4 5 4 5 6 1 3 5 5 6 5 2 2 5 3 3 3 3 2 2 2 1 1 1 1 2 2 2 2 2 2 2 2 3 4 4 3 2 2 3
0 1 4 5 5 5 5 7 3 2 4 7 6 6 3 2 4 4 3 3 3 3 3 2 1 1 1 0 1 2 2 1 2 1 1 1 1 2 2 2 2 2 2 2
2 2 3 3 3 5 4 3 1 3 6 6 6 5 3 3 4 4 4 3 3 4 3 2 2 2 2 1 2 1 0 1 1 1 1 1 1 1 1 2 1 2 3 2
1 2 3 3 3 3 3 2 4 4 5 6 5 5 3 3 4 4 5 5 4 4 3 3 2 3 3 3 2 1 1 1 2 2 1 1 1 1 1 2 1 1 2 2
3 3 1 2 3 4 4 5 6 6 5 6 6 5 4 3 3 4 4 5 5 5 5 4 4 4 4 4 4 2 2 2 2 2 1 1 2 2 2 1 0 1 2 2
4 3 3 4 5 4 5 6 7 6 7 7 7 6 5 3 4 4 4 4 5 5 5 5 4 4 4 4 4 4 3 3 3 2 2 2 2 2 2 2 1 0 1 2
4 3 3 5 5 4 5 6 7 6 6 6 6 6 6 5 4 5 5 4 4 5 5 5 5 5 5 5 5 5 4 3 3 3 3 2 2 2 2 2 3 4 2 3
Wind_Direction
166 177 213 211 207 206 174 200 235 240 232 221 243 259 268 271 251 253 255 246 242 245 245 221 206 194 183 181 183 188 184 183 174 163 164 165 180 176 170 161 154 157 155 158
177 228 226 195 193 209 214 236 250 270 242 235 270 272 266 258 244 238 241 240 240 246 242 225 207 192 191 193 195 191 189 186 182 177 173 165 169 175 179 176 153 156 159 163
212 232 192 187 195 209 224 224 230 241 309 301 301 291 259 258 246 248 245 242 239 230 227 221 207 203 197 198 198 196 193 188 181 170 154 138 123 116 151 173 180 182 172 170
231 236 208 207 212 199 235 223 212 220 246 272 238 287 274 254 270 260 255 249 243 238 227 218 208 206 206 206 194 188 187 183 177 169 166 166 171 186 195 182 184 184 174 171
233 210 207 221 222 197 217 172 192 209 215 264 229 240 277 254 258 258 254 252 247 242 226 218 214 211 207 198 185 182 178 178 175 174 177 177 184 182 172 160 167 176 183 179
247 235 213 222 222 194 165 111 129 168 190 248 225 208 270 225 227 249 248 259 256 245 228 222 222 204 197 183 175 173 171 178 175 175 179 182 185 176 167 177 184 189 188 188
268 254 230 195 178 177 159 146 210 237 223 241 193 202 249 237 223 221 233 259 269 253 230 222 215 205 201 187 182 176 171 177 177 178 184 189 188 183 186 191 192 189 188 197
236 265 225 201 202 193 198 183 190 212 222 261 187 219 247 239 236 235 237 251 280 271 237 226 220 210 206 196 186 179 182 187 184 184 190 190 186 187 193 194 193 196 198 200
209 252 291 244 211 170 179 205 192 166 190 238 239 257 288 250 290 266 252 264 271 274 258 239 231 214 204 198 197 191 187 191 191 190 188 189 187 190 194 192 190 194 196 193
189 252 277 273 123 216 189 165 157 183 198 234 253 242 233 237 245 256 250 255 273 283 282 269 236 218 206 200 196 190 189 193 194 190 189 191 194 196 193 184 190 193 191 188
186 207 282 270 204 200 173 190 189 185 195 196 236 254 221 213 216 222 237 243 253 285 283 273 263 242 207 180 180 186 193 194 193 193 191 186 188 187 181 188 198 197 192 189
204 181 242 247 249 227 197 195 184 195 218 206 217 258 267 230 244 231 258 276 284 296 299 289 284 267 157 176 187 194 202 202 203 197 190 189 184 180 187 200 202 193 195 195
190 176 268 318 322 14 214 210 204 199 183 195 209 252 296 328 315 281 250 269 286 304 320 345 357 342 258 217 204 204 206 206 203 189 184 185 184 185 197 206 200 192 191 191
254 205 210 227 243 222 256 255 228 195 214 229 228 246 275 291 284 281 271 266 263 270 283 319 341 320 293 252 222 214 222 213 198 184 183 192 199 199 202 202 197 194 188 186
145 235 243 260 270 255 255 254 238 224 220 227 243 243 256 265 260 254 255 263 280 284 288 306 309 305 295 275 244 223 222 215 196 186 192 207 207 201 197 196 196 195 191 192
182 238 254 269 267 263 268 258 244 239 237 241 256 262 268 276 264 254 253 248 261 280 286 306 314 308 293 276 254 235 221 205 182 187 197 201 198 196 194 196 191 190 193 191
209 203 234 267 290 311 263 246 235 233 227 223 244 258 277 283 267 256 251 256 266 274 278 283 289 283 272 258 242 232 222 186 171 181 188 184 186 193 199 196 192 195 195 187
200 204 220 259 284 245 254 249 237 247 251 248 266 282 276 269 277 275 249 240 275 280 284 295 297 297 293 273 258 217 157 150 159 167 179 185 184 193 193 189 198 202 200 195
205 197 209 220 246 264 293 309 281 248 268 304 284 296 319 327 342 323 315 297 276 280 283 281 283 292 294 291 264 124 122 128 133 154 186 193 185 187 185 192 200 203 195 201
192 184 201 221 234 249 283 315 310 215 276 351 333 314 320 358 304 284 316 328 324 327 324 319 328 354 9 350 122 119 128 135 168 204 219 207 189 189 193 198 197 193 190 201
92 195 215 228 240 267 312 325 5 141 291 327 320 315 312 263 266 298 333 338 341 342 338 346 9 15 358 341 130 133 147 204 230 214 175 168 185 195 193 188 183 167 170 169
216 215 216 199 226 263 332 19 54 289 316 329 330 327 321 327 340 355 360 5 16 11 7 20 43 25 16 36 116 120 191 297 14 63 95 114 127 161 143 135 146 158 158 164
275 254 247 219 232 314 342 334 328 329 329 333 335 337 352 355 352 358 359 9 20 24 19 22 48 39 28 28 73 99 342 40 63 64 60 62 71 76 113 134 149 147 156 171
318 328 310 290 299 319 340 348 348 347 342 342 349 354 5 -0 2 5 7 13 17 19 18 26 43 39 26 23 28 29 23 51 79 77 56 54 70 57 52 63 138 160 180 187
302 309 306 284 304 328 346 348 345 350 358 1 2 6 4 13 15 15 13 15 19 18 17 31 42 37 24 23 23 19 28 56 67 58 53 50 54 59 43 29 19 310 243 214
310 284 270 271 295 295 309 334 347 355 356 357 6 9 10 16 15 19 18 17 25 28 32 38 42 42 32 32 27 19 25 50 67 54 44 46 50 47 48 42 20 12 353 328
Height
1477 1481 1479 1476 1479 1480 1483 1486 1486 1484 1481 1483 1481 1477 1472 1470 1471 1470 1469 1469 1469 1469 1471 1474 1475 1477 1479 1481 1483 1484 1486 1488 1489 1491 1493 1495 1497 1499 1502 1504 1506 1508 1510 1512
1478 1475 1470 1474 1478 1480 1482 1484 1484 1483 1480 1481 1480 1475 1469 1467 1466 1465 1464 1464 1465 1466 1467 1469 1471 1473 1475 1476 1478 1480 1482 1484 1486 1488 1490 1492 1494 1496 1499 1501 1503 1505 1507 1509
1471 1468 1468 1472 1475 1478 1478 1480 1481 1482 1480 1480 1480 1472 1467 1462 1461 1461 1460 1460 1460 1461 1462 1464 1467 1469 1471 1472 1474 1476 1479 1481 1483 1485 1487 1489 1491 1493 1495 1497 1499 1502 1504 1506
1469 1467 1468 1470 1471 1473 1475 1473 1477 1479 1483 1484 1482 1480 1464 1462 1459 1457 1457 1456 1456 1457 1459 1460 1462 1464 1466 1468 1471 1473 1475 1477 1479 1481 1483 1485 1486 1489 1491 1494 1496 1499 1501 1503
1465 1464 1465 1467 1466 1469 1471 1471 1475 1478 1481 1484 1482 1482 1465 1462 1459 1455 1454 1453 1453 1454 1455 1457 1459 1460 1462 1465 1467 1469 1472 1474 1476 1478 1480 1482 1484 1486 1489 1491 1493 1496 1498 1500
1463 1462 1462 1462 1463 1465 1468 1473 1476 1479 1482 1480 1474 1479 1465 1461 1454 1451 1450 1450 1450 1451 1452 1453 1455 1457 1459 1461 1463 1466 1468 1470 1472 1474 1476 1478 1481 1483 1486 1488 1490 1492 1494 1496
1463 1461 1460 1461 1463 1465 1467 1473 1479 1478 1479 1472 1468 1472 1460 1451 1449 1448 1448 1447 1448 1448 1449 1450 1451 1453 1455 1457 1459 1462 1464 1466 1468 1471 1473 1475 1477 1479 1482 1484 1486 1488 1490 1492
1467 1464 1459 1459 1460 1461 1463 1466 1471 1473 1471 1471 1469 1466 1454 1448 1446 1445 1445 1446 1446 1446 1447 1448 1449 1450 1452 1454 1456 1458 1460 1462 1465 1467 1469 1471 1474 1476 1478 1481 1483 1485 1487 1489
1466 1463 1457 1456 1456 1459 1462 1464 1464 1471 1472 1473 1466 1462 1453 1446 1445 1444 1444 1443 1444 1445 1445 1446 1447 1448 1449 1451 1453 1455 1457 1459 1461 1463 1466 1468 1470 1473 1475 1477 1480 1482 1484 1486
1463 1465 1459 1457 1456 1457 1459 1461 1467 1468 1468 1465 1461 1459 1451 1445 1443 1443 1442 1441 1442 1443 1443 1444 1445 1446 1447 1449 1451 1453 1455 1456 1458 1460 1462 1465 1467 1469 1472 1474 1476 1478 1481 1483
1463 1465 1462 1459 1457 1456 1460 1461 1460 1463 1464 1464 1463 1453 1442 1440 1438 1439 1439 1439 1440 1441 1441 1442 1443 1444 1445 1446 1448 1449 1451 1453 1455 1457 1459 1461 1464 1466 1468 1470 1473 1475 1477 1479
1462 1464 1465 1460 1454 1453 1454 1455 1458 1460 1461 1463 1463 1453 1437 1437 1436 1437 1438 1438 1439 1440 1440 1440 1441 1442 1443 1444 1445 1446 1448 1450 1452 1454 1456 1458 1460 1462 1464 1466 1469 1471 1473 1475
1461 1463 1465 1460 1458 1457 1455 1455 1455 1456 1459 1462 1460 1450 1436 1436 1435 1436 1437 1437 1438 1438 1439 1439 1439 1439 1440 1441 1442 1443 1444 1446 1448 1451 1453 1455 1457 1458 1460 1462 1465 1467 1468 1470
1457 1460 1461 1458 1452 1454 1455 1453 1454 1455 1457 1456 1451 1443 1438 1437 1436 1436 1436 1436 1436 1437 1437 1437 1437 1437 1438 1439 1439 1440 1441 1443 1444 1446 1448 1450 1452 1454 1456 1458 1460 1462 1464 1466
1456 1459 1457 1453 1450 1450 1450 1449 1450 1450 1447 1448 1442 1440 1435 1436 1435 1434 1434 1435 1435 1435 1435 1434 1435 1435 1436 1436 1437 1437 1438 1439 1440 1442 1444 1446 1448 1451 1452 1454 1456 1458 1460 1461
1457 1458 1457 1454 1449 1448 1446 1444 1444 1443 1442 1441 1439 1436 1433 1433 1433 1433 1432 1433 1433 1433 1433 1433 1433 1434 1433 1433 1434 1434 1435 1436 1437 1438 1440 1442 1444 1446 1448 1450 1451 1453 1455 1457
1457 1458 1458 1455 1449 1447 1446 1440 1440 1440 1437 1438 1436 1433 1432 1432 1431 1431 1430 1430 1430 1431 1431 1431 1431 1431 1431 1431 1431 1432 1432 1433 1434 1435 1436 1438 1440 1442 1443 1445 1447 1449 1451 1452
1454 1456 1458 1455 1453 1452 1439 1435 1435 1434 1433 1434 1433 1431 1431 1430 1429 1428 1428 1428 1428 1428 1428 1429 1429 1429 1429 1429 1429 1429 1430 1430 1431 1432 1433 1434 1436 1438 1439 1441 1443 1445 1447 1448
1447 1451 1455 1454 1450 1441 1437 1436 1435 1435 1432 1432 1432 1430 1430 1428 1427 1426 1426 1426 1426 1426 1426 1427 1427 1427 1427 1427 1427 1427 1427 1428 1429 1429 1430 1432 1433 1434 1436 1438 1439 1441 1442 1444
1445 1447 1452 1452 1449 1443 1438 1435 1432 1432 1434 1432 1431 1430 1429 1428 1429 1426 1424 1424 1423 1424 1424 1424 1425 1425 1424 1425 1425 1425 1425 1426 1426 1427 1428 1429 1431 1432 1433 1434 1435 1437 1439 1440
1449 1451 1452 1451 1448 1443 1440 1436 1432 1438 1437 1433 1431 1429 1428 1427 1426 1425 1422 1422 1421 1421 1421 1422 1422 1422 1422 1423 1424 1424 1424 1424 1425 1426 1426 1427 1428 1429 1430 1431 1432 1434 1435 1437
1449 1451 1450 1449 1450 1447 1441 1438 1440 1439 1435 1433 1430 1428 1426 1426 1424 1422 1421 1420 1419 1419 1419 1420 1420 1420 1421 1421 1422 1422 1422 1423 1423 1424 1424 1425 1425 1426 1427 1428 1429 1431 1432 1433
1451 1451 1448 1447 1447 1444 1441 1440 1439 1437 1435 1432 1430 1428 1427 1425 1424 1423 1421 1420 1419 1418 1418 1418 1419 1419 1419 1420 1421 1420 1421 1421 1421 1422 1422 1422 1423 1424 1425 1426 1427 1427 1428 1429
1451 1449 1448 1447 1444 1443 1442 1440 1438 1437 1435 1433 1431 1429 1427 1426 1424 1423 1421 1420 1419 1418 1418 1418 1418 1418 1419 1419 1419 1419 1419 1419 1420 1420 1420 1421 1421 1422 1423 1424 1425 1425 1426 1427
1453 1451 1449 1447 1445 1443 1441 1440 1438 1436 1435 1433 1431 1430 1428 1426 1424 1423 1421 1420 1419 1419 1419 1419 1418 1418 1418 1419 1419 1419 1419 1419 1418 1418 1419 1419 1420 1420 1421 1422 1423 1423 1424 1425
1453 1452 1451 1448 1446 1445 1443 1440 1439 1437 1435 1433 1431 1430 1428 1427 1425 1423 1421 1420 1420 1419 1419 1419 1419 1419 1419 1419 1418 1418 1418 1418 1418 1417 1418 1418 1419 1419 1420 1420 1421 1421 1423 1423